STARLINK-31363, 59782

Orbit data source: Space-Track

STARLINK-31363, 59782 is a payload satellite owned by SpaceX/Seattle (US) in LEO that was launched on Sat, 18 May 2024 UTC via an FALCON 9 launch vehicle from the Air Force Eastern Test Range (AFETR). Payload-class satellites include a variety of spacecraft equipped with specific instruments for various scientific and technological missions. These include communications satellites like Starlink; space stations such as the ISS; scientific satellites like the Hubble; Earth observation satellites from companies like Planet Labs, Umbra, and HawkEye 360; GPS; miniature CubeSats for education and research; and military/defense satellites.

Loading next visibility...
Identifier
59782, 2024-093A
Orbit
LEO
Last TLE update
23 hours ago
Origin
Manufacturer
SpaceX/Seattle
Mission
Operational spacecraft
Bus & Motor
STARLINK V2M, Unknown motor
Mass
730 kg wet, ~700 kg dry
Launch date (UTC)
2024-05-18 (1 year ago)
Launch vehicle
FALCON 9
Launch site
Air Force Eastern Test Range (AFETR)
Object type
Payload
Rocket body
Debris
Shape & HBR
Unknown
Radar Cross Section
Large (>1 m²)

Expand to show TLE details & history

TLE from 23 hours ago
0 STARLINK-31363
1 59782U 24093A   25182.28988318  .00001619  00000-0  68342-4 0  9998
2 59782  42.9990 185.4571 0001284 269.1847  90.8857 15.27578695 64281
Epoch: 2025-07-01T06:57Z
TLE epoch observation values (Epoch: 2025-07-01T06:57:25.906Z)
Latitude
-0.00007°
Longitude
161.51162°
Altitude
482.842 km
Speed
7.626 km/s
True Right ascension
12h 21m 49s
True Declination
0° 00' 00"
Sunlit
Object was in daylight at epoch
Visualization orbit readout
Latitude
-42.98787°
Longitude
72.28623°
Altitude
495.44 km
Speed
7.618 km/s
Apparent Right ascension
06h 07m 15s
Apparent Declination
-41° 24' 46"
Sunlit
Object is in daylight
Visualization observer readout
Local Sidereal Time
17:49:05
Azimuth
245.044° WSW
Elevation
-86.245°
Doppler factor
1
Orbital elements
Apogee altitude
485.88 km
Perigee altitude
484.117 km
Semi-major axis
6,863.135 km
Eccentricity
0.00013
Inclination
42.999°
RAAN
185.4571°
Arg. of periapsis
269.1847°
True anomaly
Unknown
Mean anomaly
90.8857°
Eccentric anomaly
Unknown
Mean motion
3.81733 °/min
Orbital period
94.31 mins
BSTAR
0.000068342
Loading maneuver chart data...
Loading SW <> Apogee altitude chart data...
Loading historical data...
Loading historical data...
Loading historical data...
Loading historical data...
Loading historical data...
Loading historical data...
Loading historical data...

STARLINK-31363 Visibility forecast

Observer location: undefined°, undefined°

Span
Click to sort rows by Start time (UTC) header in descending order
Start Az.
Max El. time (UTC)
Max El. Az.
Max El.
End time (UTC)
End Az.
6 mins2025-07-02 06:52:24.697Z291.341° WNW2025-07-02 06:55:24.697Z23.217° NE39.026°2025-07-02 06:58:24.697Z84.314° E
5 mins2025-07-02 08:32:24.697Z275.455° WNW2025-07-02 08:34:24.697Z184.951° SSW40.9°2025-07-02 08:37:24.697Z124.869° SE
5 mins2025-07-03 03:07:24.697Z209.831° SW2025-07-03 03:09:24.697Z148.361° SSE33.513°2025-07-03 03:12:24.697Z83.176° E
5 mins2025-07-03 04:46:24.697Z274.507° WNW2025-07-03 04:48:24.697Z7.642° NNE41.61°2025-07-03 04:51:24.697Z69.532° E
|